| Time | Avg. Air Temp | Dew Point | Avg. Rel Humidity | Avg. 2 Min Wind Speed | Max Gust Velocity | MGV Time | MGV Direction | Avg. Spot Wind Velocity |
|---|---|---|---|---|---|---|---|---|
| 2026-05-10 05:45:00 | 3° C | -1° C | 72% | 24 km/h | 28 km/h | 05:42:00 | S | 24 km/h |
| 04:45:00 | 3° C | -1° C | 75% | 27 km/h | 36 km/h | 04:42:00 | S | 28 km/h |
| 03:45:00 | 4° C | -1° C | 73% | 27 km/h | 35 km/h | 03:43:00 | S | 26 km/h |
| 02:45:00 | 4° C | -1° C | 71% | 30 km/h | 36 km/h | 02:44:00 | S | 30 km/h |
| 01:45:00 | 4° C | -1° C | 70% | 29 km/h | 33 km/h | 01:43:00 | S | 28 km/h |
| 00:45:00 | 5° C | -0° C | 70% | 32 km/h | 38 km/h | 00:43:00 | SE | 33 km/h |
| 23:45:00 | 5° C | -1° C | 67% | 28 km/h | 32 km/h | 23:41:00 | S | 27 km/h |
| 22:45:00 | 5° C | -1° C | 66% | 30 km/h | 33 km/h | 22:43:00 | SE | 29 km/h |
| 21:45:00 | 5° C | -2° C | 65% | 25 km/h | 30 km/h | 21:41:00 | S | 26 km/h |
| 20:45:00 | 5° C | -2° C | 61% | 18 km/h | 21 km/h | 20:44:00 | S | 16 km/h |
| 19:45:00 | 5° C | -1° C | 60% | 19 km/h | 20 km/h | 19:42:00 | S | 18 km/h |
| 18:45:00 | 6° C | -2° C | 62% | 11 km/h | 13 km/h | 18:45:00 | SW | 9 km/h |
| 17:45:00 | 6° C | -2° C | 60% | 16 km/h | 25 km/h | 17:41:00 | S | 16 km/h |
| 16:45:00 | 6° C | -2° C | 61% | 10 km/h | 23 km/h | 16:41:00 | W | 15 km/h |
| 15:45:00 | 5° C | -2° C | 63% | 15 km/h | 23 km/h | 15:43:00 | S | 14 km/h |
| 14:45:00 | 5° C | -2° C | 61% | 10 km/h | 19 km/h | 14:43:00 | S | 11 km/h |
| 13:45:00 | 4° C | -1° C | 70% | 14 km/h | 18 km/h | 13:44:00 | SW | 13 km/h |
| 12:45:00 | 4° C | 0° C | 81% | 10 km/h | 14 km/h | 12:42:00 | SW | 9 km/h |
| 11:45:00 | 2° C | 1° C | 91% | 3 km/h | 8 km/h | 11:41:00 | SW | 3 km/h |
| 10:45:00 | 2° C | 1° C | 94% | 0 km/h | 0 km/h | 10:45:00 | E | 0 km/h |
| 09:45:00 | 3° C | 1° C | 87% | 0 km/h | 2 km/h | 09:44:00 | SW | 0 km/h |
| 08:45:00 | 1° C | 0° C | 93% | 2 km/h | 4 km/h | 08:43:00 | E | 2 km/h |
| 07:45:00 | 1° C | -1° C | 89% | 0 km/h | 0 km/h | 07:41:00 | W | 0 km/h |
| 06:45:00 | -0° C | -0° C | 100% | 10 km/h | 12 km/h | 06:43:00 | NW | 10 km/h |
Subpeak Weather
| Time | Avg. Air Temp | Dew Point | Avg. Rel Humidity | Avg. 2 Min Wind Speed | Max Gust Velocity | MGV Time | MGV Direction | Avg. Spot Wind Velocity |
|---|---|---|---|---|---|---|---|---|
| 2026-05-10 05:45:00 | 3° C | -1° C | 72% | 24 km/h | 28 km/h | 05:42:00 | S | 24 km/h |
| 05:40:00 | 3° C | -1° C | 73% | 23 km/h | 29 km/h | 05:36:00 | S | 24 km/h |
| 05:35:00 | 3° C | -1° C | 72% | 23 km/h | 29 km/h | 05:34:00 | S | 26 km/h |
| 05:30:00 | 3° C | -2° C | 71% | 28 km/h | 37 km/h | 05:29:00 | S | 28 km/h |
| 05:25:00 | 4° C | -1° C | 71% | 24 km/h | 38 km/h | 05:23:00 | S | 28 km/h |
| 05:20:00 | 3° C | -1° C | 74% | 29 km/h | 34 km/h | 05:20:00 | S | 28 km/h |
| 05:15:00 | 3° C | -1° C | 75% | 26 km/h | 32 km/h | 05:13:00 | S | 26 km/h |
| 05:10:00 | 3° C | -1° C | 75% | 26 km/h | 29 km/h | 05:09:00 | S | 26 km/h |
| 05:05:00 | 3° C | -1° C | 75% | 30 km/h | 34 km/h | 05:05:00 | S | 28 km/h |
| 05:00:00 | 3° C | -1° C | 75% | 24 km/h | 34 km/h | 04:58:00 | S | 26 km/h |
| 04:55:00 | 3° C | -1° C | 75% | 26 km/h | 35 km/h | 04:52:00 | S | 28 km/h |
| 04:50:00 | 3° C | -1° C | 75% | 28 km/h | 36 km/h | 04:49:00 | S | 27 km/h |
| 04:45:00 | 3° C | -1° C | 75% | 27 km/h | 36 km/h | 04:42:00 | S | 28 km/h |




